Date String (YYYY-MM-DD hh:mm:ss) UTC,Instrument flags,absolute air pressure of the measurement (hPa),sample flow rate (lpm),inlet stack bypass flow (lpm),air temperature of the measurement (°C),ambient temperature measured by the external sensor (°C),aerosol sample conditioner tube jacket temperature (°C),OPC LED temperature (°C),internal box temperature (°C),relative humidity of the measurement (%),span deviation,mass concentration of particles derived from Lorenz-Mie calculation of OPC scattering (μg/m³),mass concentration of particles derived from Lorenz-Mie calculation of OPC scattering (μg/m³),mass concentration of particles derived from Lorenz-Mie calculation of OPC scattering (μg/m³)
DateTimeUTC,F1_M11,P_M11,Q1_M11,Q2_M11,T1_M11,T2_M11,T3_M11,T4_M11,T5_M11,U1_M11,ZSPAN_M11,X0_M11,X2_M11,X1_M11
2023-10-17 14:00:00,SystemResetWarning,0830.0,5.00,000.00,028.6,027.2,000.0,037.0,030.2,13.0,0000.0,0005.98,0002.60,0002.05
2023-10-17 14:01:00,SystemResetWarning,0830.1,5.00,000.00,028.6,027.2,000.0,037.0,030.3,13.0,0000.0,0005.78,0002.55,0002.03
2023-10-17 14:02:00,SystemResetWarning,0830.1,5.00,000.00,028.6,027.2,000.0,037.0,030.3,13.3,0000.0,0005.37,0002.42,0001.99
2023-10-17 14:03:00,SystemResetWarning,0830.1,5.00,000.00,028.6,027.3,000.0,037.0,030.3,13.1,0000.0,0005.30,0002.37,0001.97
2023-10-17 14:04:00,SystemResetWarning,0830.1,5.00,000.00,028.7,027.3,000.0,037.0,030.3,12.9,0000.0,0007.75,0002.35,0001.95
2023-10-17 14:05:00,SystemResetWarning,0830.1,5.00,000.00,028.7,027.3,000.0,037.0,030.3,12.9,0000.0,0008.02,0002.34,0001.92
2023-10-17 14:06:00,SystemResetWarning,0830.1,5.00,000.00,028.7,027.3,000.0,037.0,030.3,12.9,0000.0,0007.90,0002.30,0001.89
2023-10-17 14:07:00,SystemResetWarning,0830.1,5.00,000.00,028.7,027.3,000.0,037.0,030.3,12.9,0000.0,0007.40,0002.25,0001.84
2023-10-17 14:08:00,SystemResetWarning,0830.1,5.00,000.00,028.7,027.3,000.0,037.1,030.3,12.9,0000.0,0007.29,0002.23,0001.81
2023-10-17 14:09:00,SystemResetWarning,0830.1,5.00,000.00,028.7,027.3,000.0,037.1,030.4,12.9,0000.0,0006.96,0002.23,0001.78
2023-10-17 14:10:00,SystemResetWarning,0830.0,5.00,000.00,028.7,027.4,000.0,037.1,030.4,13.0,0000.0,0006.99,0002.23,0001.76
2023-10-17 14:11:00,SystemResetWarning,0830.1,5.00,000.00,028.7,027.4,000.0,037.1,030.4,13.4,0000.0,0006.92,0002.20,0001.74
2023-10-17 14:12:00,SystemResetWarning,0830.1,4.99,000.00,028.7,027.4,000.0,037.1,030.4,13.4,0000.0,0006.89,0002.19,0001.74
2023-10-17 14:13:00,SystemResetWarning,0830.1,4.98,000.00,028.8,027.4,000.0,037.1,030.4,13.4,0000.0,0007.21,0002.19,0001.74
2023-10-17 14:14:00,SystemResetWarning,0830.1,4.99,000.00,028.8,027.4,000.0,037.1,030.4,13.9,0000.0,0007.30,0002.19,0001.74
2023-10-17 14:15:00,SystemResetWarning,0830.1,5.00,000.00,028.8,027.4,000.0,037.1,030.4,13.7,0000.0,0005.04,0002.17,0001.73
2023-10-17 14:16:00,SystemResetWarning,0830.1,5.00,000.00,028.8,027.5,000.0,037.1,030.4,13.6,0000.0,0003.48,0002.14,0001.73
2023-10-17 14:17:00,SystemResetWarning,0830.1,5.01,000.00,028.8,027.5,000.0,037.2,030.4,13.7,0000.0,0004.27,0002.21,0001.74
2023-10-17 14:18:00,SystemResetWarning,0830.0,5.00,000.00,028.8,027.5,000.0,037.2,030.4,13.5,0000.0,0004.92,0002.28,0001.76
2023-10-17 14:19:00,SystemResetWarning,0830.1,5.00,000.00,028.8,027.5,000.0,037.2,030.5,13.4,0000.0,0005.83,0002.26,0001.77
2023-10-17 14:20:00,SystemResetWarning,0830.1,5.00,000.00,028.8,027.5,000.0,037.2,030.5,13.5,0000.0,0006.23,0002.23,0001.76
2023-10-17 14:21:00,SystemResetWarning,0830.1,5.00,000.00,028.8,027.5,000.0,037.2,030.5,14.0,0000.0,0006.37,0002.26,0001.76
2023-10-17 14:22:00,SystemResetWarning,0830.0,5.00,000.00,028.9,027.5,000.0,037.2,030.5,14.0,0000.0,0006.47,0002.29,0001.74
2023-10-17 14:23:00,SystemResetWarning,0830.0,5.00,000.00,028.9,027.5,000.0,037.2,030.5,13.3,0000.0,0006.59,0002.33,0001.72
2023-10-17 14:24:00,SystemResetWarning,0830.0,5.00,000.00,028.9,027.6,000.0,037.3,030.5,13.0,0000.0,0006.35,0002.33,0001.71
2023-10-17 14:25:00,SystemResetWarning,0830.1,5.00,000.00,028.9,027.6,000.0,037.3,030.5,13.0,0000.0,0006.32,0002.32,0001.69
2023-10-17 14:26:00,SystemResetWarning,0830.1,5.00,000.00,028.9,027.6,000.0,037.3,030.5,13.3,0000.0,0006.25,0002.28,0001.66
2023-10-17 14:27:00,SystemResetWarning,0830.1,5.00,000.00,028.9,027.6,000.0,037.3,030.5,13.9,0000.0,0006.27,0002.28,0001.65
2023-10-17 14:28:00,SystemResetWarning,0830.1,5.00,000.00,028.9,027.6,000.0,037.3,030.6,14.1,0000.0,0005.44,0002.19,0001.63
2023-10-17 14:29:00,SystemResetWarning,0830.1,5.01,000.00,028.9,027.6,000.0,037.3,030.6,14.0,0000.0,0004.72,0002.09,0001.59
2023-10-17 14:30:00,SystemResetWarning,0830.1,5.00,000.00,029.0,027.7,000.0,037.3,030.6,14.1,0000.0,0003.98,0002.05,0001.57
2023-10-17 14:31:00,SystemResetWarning,0830.1,5.01,000.00,029.0,027.7,000.0,037.3,030.6,14.1,0000.0,0003.15,0002.03,0001.56
2023-10-17 14:32:00,SystemResetWarning,0830.1,5.00,000.00,029.0,027.7,000.0,037.4,030.6,14.2,0000.0,0003.13,0002.00,0001.55
2023-10-17 14:33:00,SystemResetWarning,0830.1,5.00,000.00,029.0,027.7,000.0,037.4,030.6,14.1,0000.0,0003.05,0001.96,0001.55
2023-10-17 14:34:00,SystemResetWarning,0830.2,5.00,000.00,029.0,027.7,000.0,037.4,030.6,13.7,0000.0,0003.05,0001.93,0001.55
2023-10-17 14:35:00,SystemResetWarning,0830.2,5.00,000.00,029.0,027.7,000.0,037.4,030.7,13.9,0000.0,0003.99,0001.97,0001.56
2023-10-17 14:36:00,SystemResetWarning,0830.2,5.00,000.00,029.0,027.8,000.0,037.4,030.7,13.9,0000.0,0004.68,0002.02,0001.59
2023-10-17 14:37:00,SystemResetWarning,0830.2,5.00,000.00,029.0,027.8,000.0,037.4,030.7,13.6,0000.0,0004.78,0002.04,0001.60
2023-10-17 14:38:00,SystemResetWarning,0830.2,5.00,000.00,029.1,027.8,000.0,037.4,030.7,13.5,0000.0,0005.23,0002.05,0001.60
2023-10-17 14:39:00,SystemResetWarning,0830.3,5.00,000.00,029.1,027.8,000.0,037.4,030.7,13.5,0000.0,0005.43,0002.07,0001.62
2023-10-17 14:40:00,SystemResetWarning,0830.2,4.99,000.00,029.1,027.8,000.0,037.4,030.7,13.4,0000.0,0006.35,0002.12,0001.64
2023-10-17 14:41:00,SystemResetWarning,0830.3,5.00,000.00,029.1,027.8,000.0,037.5,030.8,13.4,0000.0,0007.61,0002.18,0001.66
2023-10-17 14:42:00,SystemResetWarning,0830.3,5.00,000.00,029.1,027.9,000.0,037.5,030.8,13.9,0000.0,0007.62,0002.20,0001.68
2023-10-17 14:43:00,SystemResetWarning,0830.3,5.00,000.00,029.1,027.9,000.0,037.5,030.8,14.4,0000.0,0007.53,0002.16,0001.67
2023-10-17 14:44:00,SystemResetWarning,0830.2,5.00,000.00,029.1,027.9,000.0,037.5,030.8,14.7,0000.0,0007.51,0002.16,0001.65
2023-10-17 14:45:00,SystemResetWarning,0830.3,5.00,000.00,029.2,027.9,000.0,037.5,030.8,14.7,0000.0,0007.54,0002.17,0001.64
2023-10-17 14:46:00,SystemResetWarning,0830.3,5.00,000.00,029.2,028.0,000.0,037.5,030.8,13.6,0000.0,0006.91,0002.09,0001.61
2023-10-17 14:47:00,SystemResetWarning,0830.2,5.00,000.00,029.2,028.0,000.0,037.5,030.8,13.2,0000.0,0005.80,0001.99,0001.58
2023-10-17 14:48:00,SystemResetWarning,0830.2,5.00,000.00,029.2,028.0,000.0,037.6,030.9,13.7,0000.0,0005.89,0002.02,0001.58
2023-10-17 14:49:00,SystemResetWarning,0830.2,4.99,000.00,029.2,028.0,000.0,037.6,030.9,14.6,0000.0,0005.56,0002.01,0001.58
2023-10-17 14:50:00,SystemResetWarning,0830.2,5.00,000.00,029.3,028.0,000.0,037.6,030.9,14.9,0000.0,0005.57,0002.05,0001.58
2023-10-17 14:51:00,SystemResetWarning,0830.2,5.00,000.00,029.3,028.0,000.0,037.6,030.9,15.4,0000.0,0005.23,0002.05,0001.56
2023-10-17 14:52:00,SystemResetWarning,0830.2,5.01,000.00,029.3,028.1,000.0,037.6,030.9,16.2,0000.0,0005.41,0002.00,0001.55
2023-10-17 14:53:00,SystemResetWarning,0830.2,5.01,000.00,029.3,028.1,000.0,037.6,030.9,15.5,0000.0,0007.28,0002.04,0001.56
2023-10-17 14:54:00,SystemResetWarning,0830.2,5.00,000.00,029.3,028.1,000.0,037.7,030.9,15.0,0000.0,0007.39,0002.06,0001.57
2023-10-17 14:55:00,SystemResetWarning,0830.2,4.99,000.00,029.3,028.1,000.0,037.7,031.0,15.7,0000.0,0007.37,0002.06,0001.59
2023-10-17 14:56:00,SystemResetWarning,0830.1,5.00,000.00,029.3,028.1,000.0,037.7,031.0,15.6,0000.0,0007.81,0002.07,0001.61
2023-10-17 14:57:00,SystemResetWarning,0830.1,5.01,000.00,029.4,028.2,000.0,037.7,031.0,14.9,0000.0,0007.84,0002.09,0001.63
2023-10-17 14:58:00,SystemResetWarning,0830.2,5.00,000.00,029.4,028.2,000.0,037.7,031.0,15.0,0000.0,0007.94,0002.17,0001.67
2023-10-17 14:59:00,SystemResetWarning,0830.2,5.00,000.00,029.4,028.2,000.0,037.7,031.0,15.0,0000.0,0009.97,0002.67,0001.71
